Home > Weather > Winston-Salem > Past weeks

Flag for USA Past Weather in Winston-Salem, North Carolina, USA — Yesterday and Last 2 Weeks

Now
66 °F

Clear.


Feels Like: 66 °F
Forecast: 63 / 84 °F
Wind: No wind

Location: Smith Reynolds Airport

Current Time: May 26, 2016 at 4:52:51 AM

Latest Report: May 26, 2016 at 3:54 AM


Visibility: 10 mi

Pressure: 30.13 "Hg

Humidity: 75%

Dew Point: 58 °F

Location of Winston-SalemLocation

Past Weather in Winston-Salem — Graph

°F

Winston-Salem Temperature Yesterday

Maximum temperature yesterday: 84 °F (at 1:54 PM)
Minimum temperature yesterday: 56 °F (at 5:54 AM)
Average temperature yesterday: 72 °F

High & Low Weather Summary for the Past Weeks

 TemperatureHumidityPressure
High84 °F (May 25, 1:54 PM)97% (May 11, 3:54 AM)30.29 "Hg (May 11, 3:54 AM)
Low42 °F (May 16, 5:54 AM)26% (May 15, 4:54 PM)29.75 "Hg (May 14, 5:54 PM)
Average63 °F70%30.05 "Hg
* Reported May 11 2:54 AM — May 26 2:54 AM, Winston-Salem, Weather by CustomWeather, © 2016

Note: Actual official high and low records may vary slightly from our data, if they occured in-between our weather recording intervals... More about our weather records

Advertising

Winston-Salem Weather History for the Previous 24 Hours

Scroll right to see more
 ConditionsComfort  
Time TempWeatherWind HumidityBarometerVisibility
2:54 AM
Thu, May 26
67 °FPassing clouds.No wind73%30.13 "Hg10 mi
1:54 AM65 °FClear.No wind81%30.13 "Hg10 mi
12:54 AM67 °FClear.No wind76%30.15 "Hg10 mi
11:54 PM
Wed, May 25
69 °FClear.No wind70%30.16 "Hg10 mi
10:54 PM70 °FClear.No wind66%30.16 "Hg10 mi
9:54 PM73 °FClear.No wind59%30.15 "Hg10 mi
8:54 PM79 °FSunny.No wind44%30.14 "Hg10 mi
7:54 PM82 °FSunny.5 mph38%30.14 "Hg10 mi
6:54 PM83 °FSunny.6 mph36%30.14 "Hg10 mi
5:54 PM83 °FSunny.6 mph34%30.15 "Hg10 mi
4:54 PM84 °FSunny.6 mph32%30.15 "Hg10 mi
3:54 PM84 °FSunny.6 mph31%30.16 "Hg10 mi
2:54 PM83 °FSunny.3 mph27%30.18 "Hg10 mi
1:54 PM84 °FSunny.3 mph31%30.19 "Hg10 mi
12:54 PM82 °FSunny.6 mph31%30.20 "Hg10 mi
11:54 AM81 °FSunny.No wind39%30.21 "Hg10 mi
10:54 AM77 °FSunny.No wind47%30.22 "Hg10 mi
9:54 AM74 °FSunny.No wind53%30.22 "Hg10 mi
8:54 AM70 °FSunny.No wind61%30.21 "Hg10 mi
7:54 AM65 °FSunny.No wind70%30.20 "Hg10 mi
6:54 AM59 °FClear.No wind84%30.20 "Hg10 mi
5:54 AM56 °FClear.No wind90%30.17 "Hg10 mi
4:54 AM57 °FClear.No wind87%30.16 "Hg10 mi
Weather by CustomWeather, © 2016

See weather overviewHow to use our weather pages